Home   Weather   Denver   Past weeks
Flag for USA

Past Weather in Denver, Colorado, USA — Yesterday and Last 2 Weeks

Now
56 °F

Clear.


Feels Like: 54 °F
Forecast: 74 / 38 °F
Wind: 9 mph from Southeast

Location: Buckley Air Force Base

Current Time: Oct 13, 2019 at 9:25:19 pm

Latest Report: Oct 13, 2019 at 7:58 pm


Visibility: 10 mi

Pressure: 29.87 "Hg (24.71 "Hg at 1593m altitude)

Humidity: 15%

Dew Point: 9 °F

Location of DenverLocation

Past Weather in Denver — Graph

°F

Denver Temperature Yesterday

Maximum temperature yesterday: 67 °F (at 4:58 pm)
Minimum temperature yesterday: 33 °F (at 4:58 am)
Average temperature yesterday: 48 °F

High & Low Weather Summary for the Past Weeks

 TemperatureHumidityPressure
High87 °F (Sep 29, 2:58 pm)100% (Oct 1, 4:11 am)30.41 "Hg (Oct 1, 4:11 am)
Low12 °F (Oct 11, 2:58 am)4% (Oct 7, 2:58 pm)29.37 "Hg (Oct 9, 3:58 pm)
Average51 °F49%29.92 "Hg
* Reported Sep 28 7:58 pm — Oct 13 7:58 pm, Denver. Weather by CustomWeather, © 2019

Note: Actual official high and low records may vary slightly from our data, if they occured in-between our weather recording intervals... More about our weather records

Advertising

Denver Weather History for the Previous 24 Hours

Scroll right to see more
 ConditionsComfort  
Time TempWeatherWind HumidityBarometerVisibility
7:58 pm
Sun, Oct 13
56 °FClear.9 mph15%29.87 "Hg10 mi
5:58 pm64 °FSunny.7 mph10%29.84 "Hg10 mi
3:58 pm71 °FSunny.No wind6%29.83 "Hg10 mi
2:58 pm71 °FSunny.3 mph7%29.83 "Hg10 mi
1:58 pm69 °FSunny.6 mph7%29.84 "Hg7 mi
12:58 pm68 °FSunny.5 mph7%29.87 "Hg8 mi
11:58 am66 °FSunny.7 mph9%29.88 "Hg10 mi
10:58 am63 °FSunny.7 mph10%29.90 "Hg10 mi
9:58 am57 °FSunny.12 mph14%29.93 "Hg10 mi
8:58 am49 °FSunny.7 mph21%29.96 "Hg10 mi
7:58 am41 °FSunny.8 mph25%29.95 "Hg10 mi
6:58 am37 °FClear.9 mph31%29.93 "Hg10 mi
5:58 am38 °FClear.8 mph31%29.89 "Hg10 mi
4:58 am36 °FClear.7 mph35%29.87 "Hg10 mi
3:58 am34 °FClear.7 mph42%29.87 "Hg10 mi
2:58 am36 °FClear.8 mph39%29.88 "Hg10 mi
1:58 am40 °FClear.6 mph30%29.87 "Hg10 mi
12:58 am41 °FClear.7 mph27%29.86 "Hg10 mi
11:58 pm
Sat, Oct 12
43 °FClear.8 mph24%29.85 "Hg10 mi
10:58 pm43 °FClear.12 mph27%29.87 "Hg8 mi
9:58 pm44 °FClear.7 mph28%29.87 "Hg10 mi
Weather by CustomWeather, © 2019

See weather overview